* Astronomy

Members Login
Post Info TOPIC: Comet P/2010 L1 (WISE)


L

Posts: 131274
Date:
Comet 245P/WISE
Permalink  
 


Comet 245P/WISE is at Perihelion (2.190 AU) on the 9th February 2018.



__________________


L

Posts: 131274
Date:
RE: Comet P/2010 L1 (WISE)
Permalink  
 


Orbital elements:
P/2010 L1 (WISE)
T 2010 Feb. 4.8127 TT MPC
q 2.140057 (2000.0) P Q
n 0.1219922 Peri. 316.4883 +0.1181279 +0.9639933
a 4.026378 Node 318.5369 -0.7837062 -0.0568323
e 0.468491 Incl. 21.0890 -0.6097954 +0.2597827
P 8.08
From 41 observations 2010 June 2-July 14.

MPEC 2010 - N61


__________________


L

Posts: 131274
Date:
Permalink  
 

Orbital elements:
P/2010 L1 (WISE)
T 2010 Feb. 6.242 TT MPC
q 2.14890 (2000.0) P Q
n 0.118537 Peri. 317.105 +0.129763 +0.962515
a 4.10424 Node 318.609 -0.783945 -0.047484
e 0.47642 Incl. 21.113 -0.607117 +0.267039
P 8.31
From 32 observations 2010 June 2-8.

MPEC 2010 - L77



__________________


L

Posts: 131274
Date:
Permalink  
 

Orbital elements:
P/2010 L1 (WISE)
T 2010 Feb. 4.039 TT MPC
q 2.13749 (2000.0) P Q
n 0.124958 Peri. 316.248 +0.113503 +0.964481
a 3.96242 Node 318.501 -0.783455 -0.060752
e 0.46056 Incl. 21.099 -0.610995 +0.257070
P 7.89
From 20 observations 2010 June 2-8.

MPEC 2010 - L46


Comet P/2010 L1 (WISE) was discovered by the WISE satellite observatory on the 2nd June, 2010.
The preliminary orbital elements of the comet indicate a perihelion passage on the 4th February, 2010, at a distance of 2.13 AU from the Sun, and a 7.89 year orbital period.

__________________
Page 1 of 1  sorted by
Quick Reply

Please log in to post quick replies.



Create your own FREE Forum
Report Abuse
Powered by ActiveBoard